{"data":{"norad_id":52656,"intl_designator":"2022-053A","name":"STARLINK-4004","alt_names":[],"object_type":"PAYLOAD","status":"ACTIVE","operator":null,"country":"US","launch_date":"2022-05-18","launch_site_code":"AFETR","launch_vehicle":null,"mission":null,"orbit_class":"UNKNOWN","rcs_meters":null,"size_class":null,"mass_kg":null,"dimensions":null,"purposes":["comms"],"wikipedia_slug":null,"has_3d_model":false,"image_url":null,"decayed_at":null,"tle_current":{"epoch":"2026-09-20T05:10:35.058720Z","epoch_age_seconds":91042,"freshness":"FRESH","line1":"1 52656U 22053A   26263.21568355  .00000567  00000+0  27158-4 0  9994","line2":"2 52656  53.1608 348.7442 0001274  77.6446 282.4699 15.35395689240649","mean_motion":15.35395689,"eccentricity":0.0001274,"inclination_deg":53.1608,"raan_deg":348.7442,"arg_perigee_deg":77.6446,"mean_anomaly_deg":282.4699,"bstar":2.7158e-5,"rev_number":24064,"period_min":93.786898733438,"perigee_km":458.8742958428,"apogee_km":460.61658828904,"semimajor_km":6837.8824420659,"source":"CELESTRAK","updated_at":"2026-09-20T09:00:40.100000Z"}}}